[[{"header":{"parameterUnit":"m.s-1","parameterCategory":1,"la1":30.2991,"la2":30.254,"lo1":-89.0895,"lo2":-89.0444,"dy":0.0017,"dx":0.0017,"nx":28,"ny":28,"refTime":"2023-08-02T03:00:00:Z","depth":0,"parameterNumber":2,"parameterNumberName":"U-component_of_WINDS"},"data":[0,0,0,0,0,0,0,0,0,0,0,0,0,0,0,0,0,0,0,0,0,0,0,0,0,0,0,0,0,0,0,0,0,0,0,0,0,0,0,0,0,0,0,0,0,0,0,0,0,0,0,0,0,0,0,0,0,0,-1.2846,-1.2844,0,-1.2741,-1.274,-1.2738,-1.2634,-1.2632,-1.2631,-1.263,-1.2523,-1.2521,-1.252,0,0,0,0,0,0,0,0,0,0,0,0,0,-1.2957,-1.2955,-1.2846,-1.2844,-1.2843,-1.2741,-1.2739,-1.2738,-1.2634,-1.2632,-1.263,-1.2629,-1.2523,-1.2521,-1.2519,0,0,0,0,0,0,0,0,0,0,0,0,0,-1.2886,-1.2955,-1.2846,-1.2779,-1.2772,-1.2741,-1.2739,-1.2738,-1.2634,-1.2632,-1.263,-1.2628,-1.2524,-1.2521,-1.2519,-1.2547,0,0,-1.2512,-1.2511,0,0,0,0,0,0,0,0,-1.289,-1.2882,-1.279,-1.2783,-1.2775,-1.2698,-1.2739,-1.2674,-1.2635,-1.2686,-1.2629,-1.2627,-1.2583,-1.2575,-1.256,-1.2542,-1.2537,-1.2512,-1.251,-1.2509,-1.2509,0,0,0,0,0,0,0,-1.2895,-1.2886,-1.2804,-1.2789,-1.278,-1.2754,-1.2742,-1.2726,-1.2648,-1.2682,-1.2674,-1.2663,-1.2578,-1.2563,-1.2557,-1.2535,-1.2512,-1.251,-1.2508,-1.2507,-1.2536,-1.2538,0,0,0,0,0,0,-1.291,-1.2891,-1.2807,-1.2801,-1.2829,-1.2754,-1.274,-1.2725,-1.2647,-1.2634,-1.2665,-1.2658,-1.2568,-1.256,-1.2553,-1.2581,-1.2509,-1.2507,-1.2506,-1.2534,-1.2536,-1.2538,0,0,0,0,0,0,-1.2913,-1.2904,-1.2812,-1.2844,-1.283,-1.2754,-1.2738,-1.2724,-1.2708,-1.2635,-1.262,-1.2663,-1.2566,-1.2556,-1.2549,-1.2576,-1.2506,-1.2504,-1.2531,-1.2534,-1.2537,-1.2637,0,0,0,0,0,0,-1.2917,-1.2905,-1.2915,-1.2845,-1.2829,-1.281,-1.274,-1.2724,-1.2705,-1.2695,-1.2629,-1.2617,-1.2563,-1.2553,-1.2547,-1.2571,-1.2502,-1.2528,-1.2532,-1.2536,-1.2631,-1.2644,-1.2654,0,0,0,0,0,-1.2921,-1.2947,-1.2916,-1.2906,-1.2839,-1.2811,-1.2802,-1.2741,-1.2707,-1.2716,-1.2669,-1.2619,-1.2574,-1.2554,-1.2545,-1.257,-1.2526,-1.2531,-1.2536,-1.2626,-1.2641,-1.2654,0,0,0,0,0,0,-1.3022,-1.2936,-1.2901,-1.2905,-1.2866,-1.2794,-1.2803,-1.2758,-1.2728,-1.2721,-1.2646,-1.2632,-1.2634,-1.2601,-1.2579,-1.2593,-1.2543,-1.2547,-1.2615,-1.2628,-1.2639,-1.2648,-1.25,0,0,0,0,0,-1.3045,-1.3029,-1.2955,-1.2966,-1.2949,-1.288,-1.2865,-1.2821,-1.2778,-1.2762,-1.2714,-1.2674,-1.2651,-1.2638,-1.2612,-1.2626,-1.2611,-1.2639,-1.265,-1.266,-1.2664,-1.267,-1.2682,-1.2554,-1.2554,-1.2554,0,0,-1.3091,-1.3043,-1.3038,-1.2985,-1.295,-1.2937,-1.2867,-1.2855,-1.2844,-1.276,-1.2751,-1.2715,-1.2665,-1.267,-1.2669,-1.2642,-1.2696,-1.2666,-1.2674,-1.2673,-1.2677,-1.2689,-1.27,-1.2558,-1.2557,-1.2556,0,0,-1.317,-1.3131,-1.3136,-1.3103,-1.3051,-1.3005,-1.3007,-1.2941,-1.2914,-1.2904,-1.284,-1.2827,-1.2788,-1.2757,-1.2736,-1.2804,-1.2757,-1.2798,-1.2857,-1.2865,-1.2875,-1.2883,-1.2909,-1.2919,-1.2802,-1.2802,-1.2802,0,-1.3234,-1.3211,-1.3145,-1.3137,-1.3117,-1.304,-1.3045,-1.3016,-1.2959,-1.2946,-1.2917,-1.2868,-1.283,-1.2826,-1.2843,-1.2828,-1.2828,-1.2805,-1.2879,-1.2886,-1.2894,-1.2917,-1.2927,-1.2807,-1.2807,-1.2806,-1.2806,0,-1.3294,-1.3279,-1.329,-1.3237,-1.3217,-1.3217,-1.3151,-1.3139,-1.3097,-1.3055,-1.3046,-1.2997,-1.2961,-1.2957,-1.2915,-1.2948,-1.2933,-1.2892,-1.2841,-1.2912,-1.2934,-1.2942,-1.2815,-1.2813,-1.2812,-1.281,0,0,-1.3433,-1.3344,-1.3349,-1.3325,-1.3262,-1.325,-1.3246,-1.3211,-1.3203,-1.3167,-1.3162,-1.3132,-1.3095,-1.3071,-1.3025,-1.3031,-1.3091,-1.2989,-1.2987,-1.3011,-1.3125,-1.3158,-1.3169,-1.3059,-1.306,-1.3061,-1.313,0,-1.3502,-1.349,-1.3431,-1.3437,-1.3423,-1.335,-1.3347,-1.3309,-1.327,-1.3253,-1.3209,-1.319,-1.314,-1.3126,-1.3129,-1.3083,-1.3113,-1.3077,-1.3055,-1.3055,-1.3071,-1.318,-1.3213,-1.328,-1.3138,-1.3139,-1.314,0,-1.358,-1.3549,-1.3554,-1.3493,-1.3485,-1.3484,-1.3448,-1.3432,-1.3388,-1.3359,-1.3333,-1.3282,-1.3275,-1.3227,-1.3217,-1.3194,-1.3181,-1.3158,-1.3159,-1.3155,-1.3103,-1.3181,-1.33,-1.3311,-1.3152,-1.3151,-1.315,0,-1.3683,-1.3642,-1.364,-1.3622,-1.355,-1.3551,-1.3521,-1.3475,-1.3458,-1.3427,-1.3416,-1.3384,-1.3367,-1.3344,-1.3287,-1.3256,-1.3284,-1.323,-1.3261,-1.3262,-1.327,-1.3271,-1.3391,-1.3261,-1.3261,-1.326,-1.326,0,-1.3767,-1.3773,-1.3686,-1.3685,-1.369,-1.3622,-1.3629,-1.3593,-1.3552,-1.3544,-1.3478,-1.3472,-1.3395,-1.338,-1.3335,-1.3335,-1.3327,-1.3304,-1.3292,-1.3311,-1.3314,-1.3302,-1.3297,-1.3263,-1.3262,-1.3262,-1.3261,0,-1.3883,-1.3824,-1.3818,-1.3751,-1.3734,-1.3741,-1.3684,-1.3681,-1.3638,-1.3628,-1.3621,-1.3554,-1.3533,-1.3473,-1.3437,-1.3406,-1.342,-1.3396,-1.3435,-1.3428,-1.3462,-1.346,-1.358,-1.3593,-1.3454,-1.3455,-1.3456,0,-1.394,-1.3944,-1.3877,-1.3867,-1.384,-1.3824,-1.3807,-1.374,-1.3725,-1.3676,-1.3679,-1.3653,-1.3629,-1.3599,-1.3547,-1.352,-1.3496,-1.354,-1.3491,-1.351,-1.3498,-1.35,-1.35,-1.3551,-1.3553,-1.3554,-1.3555,0,-1.405,-1.4021,-1.3999,-1.3967,-1.3949,-1.3921,-1.3889,-1.3884,-1.381,-1.3797,-1.3774,-1.3756,-1.3719,-1.3695,-1.3659,-1.3629,-1.3581,-1.3571,-1.3577,-1.3596,-1.3619,-1.3609,-1.3465,-1.3569,-1.3567,-1.3566,-1.3566,-1.3565,-1.4139,-1.4139,-1.4093,-1.4071,-1.404,-1.4012,-1.4007,-1.3963,-1.3944,-1.3909,-1.387,-1.3853,-1.381,-1.3757,-1.3731,-1.3717,-1.3691,-1.3699,-1.3701,-1.3705,-1.3714,-1.3621,-1.371,-1.371,-1.3709,-1.3709,-1.3708,0,-1.4246,-1.4213,-1.4193,-1.4151,-1.4135,-1.409,-1.4053,-1.4042,-1.4028,-1.3992,-1.3969,-1.3945,-1.3921,-1.3868,-1.384,-1.3839,-1.3816,-1.3834,-1.3834,-1.3828,-1.3738,-1.3737,-1.3853,-1.3853,-1.3853,-1.3853,-1.3853,-1.3853,-1.43,-1.4298,-1.4265,-1.4248,-1.4214,-1.4197,-1.418,-1.4154,-1.4125,-1.4101,-1.4081,-1.4046,-1.4004,-1.3972,-1.3949,-1.3934,-1.3927,-1.3953,-1.3931,-1.3848,-1.3834,-1.3821,-1.3819,-1.3951,-1.3951,-1.4022,-1.4023,-1.4023]},{"header":{"parameterUnit":"m.s-1","parameterCategory":1,"la1":30.2991,"la2":30.254,"lo1":-89.0895,"lo2":-89.0444,"dy":0.0017,"dx":0.0017,"nx":28,"ny":28,"refTime":"2023-08-02T03:00:00:Z","depth":0,"parameterNumber":3,"parameterNumberName":"V-component_of_WINDS"},"data":[0,0,0,0,0,0,0,0,0,0,0,0,0,0,0,0,0,0,0,0,0,0,0,0,0,0,0,0,0,0,0,0,0,0,0,0,0,0,0,0,0,0,0,0,0,0,0,0,0,0,0,0,0,0,0,0,0,0,1.019,1.019,0,1.017,1.017,1.0169,1.0154,1.0154,1.0154,1.0154,1.0132,1.0131,1.0131,0,0,0,0,0,0,0,0,0,0,0,0,0,1.0214,1.0214,1.019,1.019,1.019,1.017,1.017,1.0169,1.0154,1.0154,1.0154,1.0154,1.0132,1.0131,1.0131,0,0,0,0,0,0,0,0,0,0,0,0,0,1.02,1.0214,1.019,1.018,1.0179,1.017,1.017,1.0169,1.0154,1.0154,1.0154,1.0154,1.0132,1.0131,1.0131,1.013,0,0,1.0129,1.0128,0,0,0,0,0,0,0,0,1.0201,1.0199,1.0182,1.0181,1.0179,1.0164,1.017,1.0156,1.0154,1.0164,1.0154,1.0154,1.0143,1.0141,1.0138,1.0129,1.0128,1.0128,1.0128,1.0128,1.0128,0,0,0,0,0,0,0,1.0202,1.02,1.0182,1.0181,1.018,1.0176,1.0173,1.0167,1.0154,1.0163,1.0162,1.0159,1.0142,1.0138,1.0137,1.0128,1.0129,1.0128,1.0127,1.0127,1.0116,1.0116,0,0,0,0,0,0,1.0204,1.0201,1.0183,1.0182,1.019,1.0175,1.0173,1.0169,1.0154,1.0152,1.016,1.0159,1.014,1.0138,1.0136,1.0133,1.0128,1.0127,1.0127,1.0115,1.0116,1.0116,0,0,0,0,0,0,1.0205,1.0203,1.0184,1.0191,1.0188,1.0175,1.0171,1.0169,1.0165,1.0152,1.015,1.0158,1.0139,1.0137,1.0131,1.0132,1.0127,1.0126,1.0115,1.0116,1.0116,1.0128,0,0,0,0,0,0,1.0206,1.0203,1.0204,1.0191,1.0188,1.018,1.0172,1.0169,1.0164,1.0163,1.015,1.0148,1.0139,1.0132,1.0131,1.0131,1.0126,1.0115,1.0115,1.0116,1.0128,1.0129,1.013,0,0,0,0,0,1.0207,1.0208,1.0204,1.0202,1.0188,1.018,1.0178,1.0168,1.0165,1.0164,1.0155,1.0148,1.0133,1.0132,1.013,1.013,1.0115,1.0115,1.0116,1.0127,1.0129,1.013,0,0,0,0,0,0,1.0222,1.0206,1.0201,1.0199,1.0191,1.0178,1.0177,1.017,1.0163,1.0162,1.015,1.0147,1.0142,1.0136,1.0135,1.0128,1.0123,1.0123,1.0132,1.0134,1.0135,1.0136,1.0125,0,0,0,0,0,1.0225,1.022,1.0207,1.0206,1.0202,1.019,1.0187,1.018,1.0171,1.0167,1.0158,1.0149,1.0142,1.0137,1.013,1.0127,1.0123,1.0125,1.0127,1.0127,1.0127,1.0123,1.0124,1.0117,1.0117,1.0117,0,0,1.0231,1.0222,1.022,1.0209,1.0202,1.0196,1.0188,1.0183,1.0178,1.0166,1.016,1.0153,1.0142,1.0137,1.0134,1.0131,1.0128,1.0128,1.0129,1.0128,1.0124,1.0124,1.0125,1.0117,1.0117,1.0117,0,0,1.0239,1.0233,1.023,1.0223,1.0213,1.0204,1.0204,1.0191,1.0186,1.0179,1.0169,1.0164,1.0152,1.0144,1.0139,1.0142,1.0135,1.014,1.0145,1.0141,1.0142,1.0142,1.0142,1.0143,1.014,1.014,1.014,0,1.0248,1.0241,1.023,1.0225,1.022,1.0208,1.0205,1.0199,1.0186,1.0182,1.0179,1.0163,1.0155,1.0147,1.0148,1.0144,1.0142,1.0141,1.0143,1.0143,1.0143,1.0143,1.0143,1.014,1.014,1.014,1.014,0,1.0251,1.0246,1.0245,1.0233,1.0228,1.0224,1.0212,1.0207,1.02,1.0192,1.0185,1.0174,1.0164,1.0162,1.0155,1.0152,1.015,1.0145,1.014,1.0145,1.0145,1.0144,1.0141,1.0141,1.0141,1.0141,0,0,1.0269,1.025,1.025,1.0244,1.023,1.0226,1.0221,1.0211,1.0206,1.0198,1.0192,1.0182,1.0176,1.017,1.0162,1.0159,1.016,1.0154,1.0153,1.0154,1.0155,1.0158,1.0159,1.0155,1.0155,1.0155,1.0155,0,1.0275,1.0266,1.0255,1.0249,1.0243,1.0231,1.0227,1.0217,1.0209,1.0202,1.0193,1.0185,1.0179,1.0175,1.0171,1.0161,1.016,1.0161,1.0149,1.0149,1.0152,1.0159,1.0163,1.0164,1.0155,1.0155,1.0155,0,1.028,1.0272,1.0265,1.0251,1.0248,1.0244,1.0233,1.0227,1.0215,1.021,1.0202,1.0193,1.0186,1.0181,1.017,1.0171,1.0165,1.0159,1.0159,1.0157,1.0152,1.0156,1.0164,1.0164,1.0155,1.0155,1.0155,0,1.0292,1.0279,1.0273,1.0268,1.0252,1.0249,1.0242,1.0231,1.0225,1.0215,1.021,1.02,1.0194,1.0185,1.0173,1.0171,1.0163,1.0158,1.0157,1.0157,1.0156,1.0156,1.0162,1.0153,1.0153,1.0153,1.0153,0,1.0299,1.0295,1.0278,1.0275,1.027,1.0257,1.0252,1.0244,1.0233,1.0227,1.0216,1.021,1.0195,1.0186,1.0177,1.0168,1.0166,1.016,1.0157,1.0161,1.0161,1.0157,1.0156,1.0153,1.0153,1.0153,1.0153,0,1.0312,1.0301,1.0293,1.0278,1.0274,1.0271,1.0257,1.0252,1.0243,1.0235,1.0232,1.0217,1.0207,1.0194,1.018,1.0173,1.0165,1.0162,1.0169,1.0168,1.0167,1.0167,1.017,1.0169,1.0162,1.0162,1.0162,0,1.0317,1.0314,1.0298,1.0293,1.0286,1.0278,1.0272,1.0259,1.0253,1.0239,1.0235,1.0224,1.0215,1.0198,1.0186,1.0174,1.017,1.0171,1.0168,1.0171,1.0169,1.0169,1.0168,1.0172,1.0172,1.0172,1.0173,0,1.0326,1.0321,1.0313,1.0302,1.0295,1.0286,1.0276,1.0272,1.0257,1.025,1.024,1.0232,1.0217,1.0206,1.0192,1.0184,1.0175,1.0174,1.0173,1.0176,1.018,1.0177,1.0171,1.0174,1.0174,1.0173,1.0173,1.0173,1.0335,1.0331,1.0319,1.0309,1.0301,1.0292,1.0286,1.0276,1.0267,1.0254,1.0246,1.0236,1.0222,1.0204,1.0195,1.0186,1.0183,1.0182,1.0181,1.0181,1.0182,1.0182,1.0183,1.0183,1.0183,1.0183,1.0183,0,1.0343,1.0334,1.0326,1.0313,1.0305,1.0298,1.0286,1.028,1.0271,1.026,1.025,1.0237,1.0226,1.0212,1.0199,1.0194,1.0189,1.0191,1.0191,1.0189,1.0185,1.0187,1.0194,1.0194,1.0194,1.0194,1.0194,1.0194,1.0346,1.0338,1.0331,1.0318,1.031,1.0299,1.0293,1.0284,1.0275,1.0261,1.0252,1.0243,1.023,1.0216,1.0204,1.02,1.0196,1.0198,1.0193,1.019,1.0189,1.0188,1.019,1.0197,1.0197,1.0197,1.0197,1.0197]}]]